Flag for French Polynesia Weather past 2 weeks in Taiohae, Marquesas Islands, French Polynesia

Now
74 °F

Mild.


Feels Like: 75 °F
Forecast: 79 / 83 °F
Wind: 3 mph from Northeast

Location: Atuona

Current Time: May 30, 2015 at 4:11:39 AM

Latest Report: May 30, 2015 at 3:30 AM


Visibility: N/A

Pressure: 29.86 "Hg

Humidity: 78%

Dew point: 67 °F

Location of TaiohaeLocation

Historic Weather in Taiohae — Graph

°F

Taiohae temperature yesterday

Maximum temperature yesterday: 84 °F (at 9:30 AM)
Minimum temperature yesterday: 76 °F (at 2:30 AM)
Average temperature yesterday: 80 °F

Past Weeks' High & Low Weather Summary

 TemperatureHumidityPressure
High91 °F (May 20, 10:30 AM)92% (May 22, 7:30 AM)30.00 "Hg (May 22, 7:30 AM)
Low73 °F (May 25, 4:30 AM)53% (May 20, 10:30 AM)29.80 "Hg (May 17, 3:30 PM)
Average79 °F77%29.90 "Hg
* Reported May 15 2:30 AM — May 30 2:30 AM, Taiohae, Weather by CustomWeather, © 2015

Note: Actual official high and low records may vary slightly from our data, if they occured in-between our weather recording intervals... More about our weather records

Advertising

Taiohae weather history for previous 24 hours

 ConditionsComfort  
Time TempWeatherWind HumidityBarometerVisibility
2:30 AM
Sat, May 30
74 °FMild.3 mph80%29.86 "HgN/A
1:30 AM75 °FMild.3 mph79%29.88 "HgN/A
12:30 AM76 °FMild.3 mph76%29.88 "HgN/A
11:30 PM
Fri, May 29
78 °FWarm.6 mph74%29.90 "HgN/A
10:30 PM78 °FWarm.6 mph75%29.90 "HgN/A
9:30 PM79 °FWarm.6 mph73%29.90 "HgN/A
8:30 PM80 °FWarm.10 mph68%29.89 "HgN/A
7:30 PM80 °FWarm.6 mph71%29.88 "HgN/A
6:30 PM80 °FWarm.7 mph70%29.87 "HgN/A
4:30 PM81 °FScattered clouds.12 mph67%29.83 "Hg19 mi
3:30 PM82 °FScattered clouds.12 mph66%29.83 "Hg19 mi
2:30 PM83 °FScattered clouds.14 mph64%29.84 "Hg19 mi
1:30 PM83 °FPartly sunny.14 mph65%29.84 "Hg19 mi
12:30 PM83 °FPassing clouds.18 mph62%29.87 "Hg19 mi
10:30 AM82 °FPartly sunny.14 mph66%29.93 "Hg19 mi
9:30 AM84 °FPartly sunny.10 mph68%29.95 "Hg19 mi
8:30 AM79 °FOvercast.14 mph78%29.96 "Hg19 mi
7:30 AM80 °FOvercast.9 mph70%29.93 "Hg6 mi
6:30 AM78 °FScattered clouds.7 mph76%29.93 "Hg25 mi
5:30 AM76 °FPassing clouds.5 mph74%29.91 "Hg25 mi
4:30 AM79 °FWarm.12 mph72%29.89 "HgN/A
Weather by CustomWeather, © 2015

See weather overviewHow to use our weather pages